Home   Weather   Austin   Past weeks

Flag for USA Past Weather in Austin, Texas, USA — Yesterday and Last 2 Weeks

Now
51 °F

Fog.


Feels Like: 50 °F
Forecast: 51 / 69 °F
Wind: 5 mph from North

Location: Camp Mabry / Austin City

Current Time: Dec 10, 2016 at 8:34:11 pm

Latest Report: Dec 10, 2016 at 7:51 pm


Visibility: 3 mi

Pressure: 30.27 "Hg

Humidity: 92%

Dew Point: 49 °F

Location of AustinLocation

Past Weather in Austin — Graph

°F

Austin Temperature Yesterday

Maximum temperature yesterday: 46 °F (at 2:51 pm)
Minimum temperature yesterday: 33 °F (at 6:51 am)
Average temperature yesterday: 39 °F

High & Low Weather Summary for the Past Weeks

 TemperatureHumidityPressure
High78 °F (Nov 28, 3:51 pm)100% (Dec 5, 9:51 pm)30.68 "Hg (Dec 5, 9:51 pm)
Low33 °F (Dec 9, 6:51 am)22% (Nov 28, 12:51 pm)29.52 "Hg (Nov 28, 2:51 pm)
Average53 °F71%30.07 "Hg
* Reported Nov 25 6:51 pm — Dec 10 6:51 pm, Austin, Weather by CustomWeather, © 2016

Note: Actual official high and low records may vary slightly from our data, if they occured in-between our weather recording intervals... More about our weather records

Advertising

Austin Weather History for the Previous 24 Hours

Scroll right to see more
 ConditionsComfort  
Time TempWeatherWind HumidityBarometerVisibility
6:51 pm
Sat, Dec 10
51 °FFog.5 mph86%30.27 "Hg6 mi
5:51 pm52 °FOvercast.7 mph77%30.27 "Hg10 mi
4:51 pm52 °FOvercast.5 mph72%30.29 "Hg10 mi
3:51 pm51 °FOvercast.5 mph71%30.30 "Hg10 mi
2:51 pm51 °FOvercast.6 mph63%30.32 "Hg10 mi
1:51 pm50 °FOvercast.No wind63%30.36 "Hg10 mi
12:51 pm49 °FOvercast.3 mph57%30.40 "Hg10 mi
11:51 am49 °FOvercast.3 mph52%30.43 "Hg10 mi
10:51 am47 °FOvercast.3 mph56%30.47 "Hg10 mi
9:51 am45 °FMostly cloudy.3 mph58%30.49 "Hg10 mi
8:51 am43 °FMostly cloudy.5 mph60%30.48 "Hg10 mi
7:51 am41 °FOvercast.5 mph62%30.47 "Hg10 mi
6:51 am41 °FMostly cloudy.3 mph58%30.47 "Hg10 mi
5:51 am40 °FMostly cloudy.No wind63%30.47 "Hg10 mi
4:51 am38 °FOvercast.No wind79%30.48 "Hg10 mi
3:51 am37 °FOvercast.No wind82%30.50 "Hg10 mi
2:51 am35 °FPassing clouds.No wind75%30.50 "Hg10 mi
1:51 am36 °FClear.No wind73%30.50 "Hg10 mi
12:51 am37 °FClear.No wind67%30.51 "Hg10 mi
11:51 pm
Fri, Dec 9
39 °FClear.No wind57%30.53 "Hg10 mi
10:51 pm41 °FOvercast.No wind55%30.54 "Hg10 mi
9:51 pm41 °FPassing clouds.No wind53%30.53 "Hg10 mi
8:51 pm43 °FOvercast.3 mph47%30.53 "Hg10 mi
Weather by CustomWeather, © 2016

See weather overviewHow to use our weather pages